This demonstration page uses our WeatherBlox Daily Observations layout. Learn more.

Left ArrowRight Arrow

Hourly Observations for January 23, 2016

Temp ( °F °C ) Dew Point ( °F °C ) Humidity (%) Winds ( mph kmh ) Pressure ( in mb ) Visibility ( mi km ) Precip ( " mm )
12:24 am 00:24 Cloudy with Rain 46 7.8 43 6.1 89 89 E 31 50 29.38 995 2 3 0.18 4.57
12:29 am 00:29 Cloudy with Rain 46 7.8 44 6.7 93 93 ENE 29 46 29.38 995 2 3 0.19 4.83
12:59 am 00:59 Cloudy with Light Rain 47 8.3 44 6.7 90 90 E 16 26 29.37 995 3 5 0.26 6.60
1:32 am 01:32 Cloudy with Heavy Rain 44 6.7 41 5 89 89 NNW 29 46 29.44 997 1 1 0.53 13.46
1:47 am 01:47 Cloudy with Rain 40 4.4 38 3.3 93 93 NNW 31 50 29.44 997 2 3 0.66 16.76
1:59 am 01:59 Cloudy with Light Rain 41 5 38 3.3 89 89 NNW 25 41 29.42 996 3 5 0.69 17.53
2:12 am 02:12 Cloudy with Light Rain 39 3.9 36 2.2 89 89 NNW 24 39 29.41 996 4 6 0.02 0.51
2:59 am 02:59 Mostly Cloudy with Mist and Fog 37 2.8 34 1.1 89 89 N 29 46 29.29 992 6 10 0.07 1.78
3:59 am 03:59 Mostly Cloudy with Mist and Fog 38 3.3 34 1.1 86 86 N 29 46 29.29 992 6 10 0.00 0.00
4:59 am 04:59 Cloudy with Light Rain 37 2.8 34 1.1 89 89 NNW 23 37 29.33 993 6 10 0.01 0.25
5:06 am 05:06 Windy with Snow Likely 36 2.2 34 1.1 93 93 NNW 21 33 29.32 993 3 4 0.02 0.51
5:31 am 05:31 Windy with Snow Likely 36 2.2 33 0.6 89 89 NNW 21 33 29.32 993 3 5 0.04 1.02
5:59 am 05:59 Cloudy with Light Rain/Snow 36 2.2 33 0.6 89 89 NW 22 35 29.32 993 5 8 0.05 1.27
6:26 am 06:26 Cloudy with Light Rain/Snow 35 1.7 32 0 89 89 NW 22 35 29.32 993 5 8 0.00 0.00
6:59 am 06:59 Cloudy with Light Rain 34 1.1 31 -0.6 89 89 NW 15 24 29.33 993 6 10 0.01 0.25
7:56 am 07:56 Cloudy with Light Rain 34 1 30 -1 87 87 WNW 16 26 29.35 994 2 3 0.00 0.00
7:59 am 07:59 Cloudy with Light Rain 33 0.6 31 -0.6 92 92 WNW 14 22 29.34 994 2 3 0.00 0.03
8:59 am 08:59 Cloudy with Light Rain 34 1.1 31 -0.6 89 89 WNW 16 26 29.34 994 2 3 0.05 1.27
9:46 am 09:46 Cloudy with Light Rain 34 1.1 31 -0.6 89 89 NW 15 24 29.35 994 3 5 0.02 0.51
9:59 am 09:59 Cloudy with Light Rain 34 1.1 31 -0.6 89 89 WNW 17 28 29.36 994 4 6 0.03 0.76
10:11 am 10:11 Cloudy with Light Rain/Snow 33 0.6 30 -1.1 89 89 WNW 18 30 29.35 994 2 3 0.02 0.51
10:19 am 10:19 Cloudy with Light Rain/Snow 33 0.6 30 -1.1 89 89 WNW 18 30 29.35 994 1 2 0.04 1.02
10:39 am 10:39 Cloudy with Light Rain/Snow 32 0 30 -1.1 92 92 WNW 20 31 29.35 994 2 2 0.07 1.78
10:55 am 10:55 Cloudy with Rain/Snow 32 0 28 -2 87 87 WNW 20 31 29.35 994 1 2 0.12 3.05
10:59 am 10:59 Cloudy with Rain/Snow 32 0 29 -1.7 88 88 WNW 21 33 29.35 994 1 2 0.14 3.56
11:16 am 11:16 Cloudy with Light Rain/Snow 32 0 29 -1.7 88 88 WNW 18 30 29.35 994 2 2 0.04 1.02
11:31 am 11:31 Cloudy with Light Rain/Snow 32 0 29 -1.7 88 88 WNW 17 28 29.35 994 2 2 0.05 1.27
11:46 am 11:46 Cloudy with Light Rain/Snow 32 0 29 -1.7 88 88 WNW 18 30 29.35 994 2 3 0.06 1.52
11:59 am 11:59 Cloudy with Light Rain/Snow 32 0 29 -1.7 88 88 WNW 20 31 29.34 994 2 3 0.06 1.52
12:03 pm 12:03 Cloudy with Light Rain/Snow 32 0 29 -1.7 88 88 WNW 20 31 29.35 994 2 3 0.00 0.03
12:13 pm 12:13 Cloudy with Light Rain/Snow 32 0 29 -1.7 88 88 WNW 18 30 29.35 994 2 2 0.01 0.25
12:59 pm 12:59 Windy with Snow Likely 31 -0.6 28 -2.2 89 89 WNW 22 35 29.33 993 1 2 0.03 0.76
1:48 pm 13:48 Windy with Snow Likely 31 -0.6 28 -2.2 89 89 WNW 22 35 29.35 994 2 2 0.01 0.25
1:59 pm 13:59 Cloudy with Light Rain/Snow 31 -0.6 28 -2.2 89 89 WNW 23 37 29.34 994 2 2 0.01 0.25
2:28 pm 14:28 Cloudy with Light Rain/Snow 31 -0.6 27 -2.8 85 85 WNW 23 37 29.35 994 2 3 0.01 0.25
2:59 pm 14:59 Windy with Snow Likely 31 -0.6 27 -2.8 85 85 WNW 24 39 29.36 994 3 4 0.02 0.51
3:34 pm 15:34 Windy with Snow Likely 30 -1.1 27 -2.8 88 88 WNW 23 37 29.38 995 1 2 0.01 0.25
3:59 pm 15:59 Windy with Snow Likely 30 -1.1 27 -2.8 88 88 NW 22 35 29.40 996 1 2 0.02 0.51
4:32 pm 16:32 Windy with Snow Likely 30 -1.1 27 -2.8 88 88 WNW 22 35 29.44 997 2 2 0.00 0.03
4:59 pm 16:59 Windy with Snow Likely 30 -1.1 27 -2.8 88 88 NW 23 37 29.44 997 2 3 0.01 0.25
5:59 pm 17:59 Windy with Snow Likely 31 -0.6 27 -2.8 85 85 NW 21 33 29.49 999 3 5 0.00 0.03
6:59 pm 18:59 Windy with Snow Likely 31 -0.6 27 -2.8 85 85 NNW 24 39 29.54 1000 3 5 0.01 0.25
7:11 pm 19:11 Windy with Snow Likely 31 -0.6 27 -2.8 85 85 NNW 23 37 29.56 1001 2 3 0.00 0.03
7:33 pm 19:33 Windy with Snow Likely 31 -0.6 26 -3.3 82 82 NNW 24 39 29.56 1001 2 2 0.00 0.03
7:59 pm 19:59 Windy with Snow Likely 30 -1.1 26 -3.3 85 85 NNW 28 44 29.60 1002 3 4 0.01 0.25
8:24 pm 20:24 Windy with Snow Likely 31 -0.6 26 -3.3 82 82 NNW 24 39 29.62 1003 4 6 0.00 0.03
8:59 pm 20:59 Cloudy 31 -0.6 26 -3.3 82 82 NNW 24 39 29.63 1003 10 16 0.00 0.03
9:32 pm 21:32 Cloudy 31 -0.6 25 -3.9 79 79 NNW 28 44 29.65 1004 10 16 0.00 0.00
9:59 pm 21:59 Cloudy 31 -0.6 25 -3.9 79 79 NNW 23 37 29.67 1005 10 16 0.00 0.00
10:59 pm 22:59 Windy with Snow Likely 30 -1.1 25 -3.9 82 82 NNW 24 39 29.71 1006 8 13 0.00 0.03
11:31 pm 23:31 Windy with Snow Likely 31 -0.6 26 -3.3 82 82 NNW 23 37 29.74 1007 3 4 0.00 0.03
11:47 pm 23:47 Windy with Snow Likely 31 -0.6 26 -3.3 82 82 NNW 21 33 29.74 1007 3 5 0.00 0.03
11:50 pm 23:50 Windy with Snow Likely 31 -0.6 26 -3.3 82 82 NNW 23 37 29.74 1007 3 5 0.00 0.03
11:55 pm 23:55 Windy with Snow Likely 30 -1 27 -3 86 86 NNW 20 31 29.74 1007 2 3 0.00 0.03
11:59 pm 23:59 Windy with Snow Likely 31 -0.6 26 -3.3 82 82 NNW 20 31 29.74 1007 2 3 0.00 0.03

Powered by AerisWeather